Location: Cabeza de los Veneras
(40.2000°N, 5.2000°W)
Time: 13:09:26
(UTC+00:00)

COSMOS 2455 - Pass Details

Date: 18 April 2024
Orbit: 898 x 911 km, 67.1° (Epoch: 27 May)

Event Time Altitude Azimuth Distance (km) Brightness Sun altitude
Rises 22:03:01 0° 329° (NNW) 3,547 7.1 -29.6°
Reaches altitude 10° 22:05:33 10° 327° (NNW) 2,602 6.1 -29.9°
Enters shadow 22:11:11 68° 271° (W) 976 3.0 -30.5°
